EZY95GV EGGP-EGGW

Flight info

Callsign EZY95GV
Flight time 0h 48m
Altitude 23000
Route NANTI L8 HON L15 FINMA
Aircraft A320/M-SDE3FGHIRWY/LB1

Departure

Time 2026-04-29 20:37
Airport Liverpool John Lennon Airport (EGGP)

Arrival

Time 2026-04-29 21:26
Airport London Luton Airport (EGGW)
Time Latitude Longitude Altitude Speed Heading
2026-04-29 20:12 53.33664 -2.85527 85 ft 0 kts 357°
2026-04-29 20:29 53.33658 -2.85526 85 ft 4 kts 356°
2026-04-29 20:30 53.33632 -2.85522 85 ft 4 kts 340°
2026-04-29 20:30 53.33614 -2.85496 85 ft 4 kts 280°
2026-04-29 20:30 53.33613 -2.85473 85 ft 1 kts 266°
2026-04-29 20:30 53.33613 -2.85470 85 ft 0 kts 266°
2026-04-29 20:33 53.33612 -2.85493 89 ft 4 kts 265°
2026-04-29 20:33 53.33608 -2.85570 88 ft 9 kts 264°
2026-04-29 20:34 53.33601 -2.85701 85 ft 13 kts 265°
2026-04-29 20:34 53.33595 -2.85871 85 ft 16 kts 267°
2026-04-29 20:34 53.33589 -2.86076 85 ft 19 kts 267°
2026-04-29 20:34 53.33570 -2.86256 87 ft 11 kts 238°
2026-04-29 20:35 53.33513 -2.86315 87 ft 11 kts 184°
2026-04-29 20:35 53.33463 -2.86368 85 ft 7 kts 242°
2026-04-29 20:35 53.33425 -2.86429 85 ft 8 kts 194°
2026-04-29 20:35 53.33397 -2.86429 85 ft 2 kts 177°
2026-04-29 20:36 53.33355 -2.86424 85 ft 9 kts 174°
2026-04-29 20:36 53.33308 -2.86375 83 ft 6 kts 103°
2026-04-29 20:36 53.33301 -2.86302 83 ft 4 kts 86°
2026-04-29 20:36 53.33301 -2.86294 83 ft 0 kts 87°
2026-04-29 20:37 53.33314 -2.85956 87 ft 64 kts 86°
2026-04-29 20:37 53.33367 -2.84846 90 ft 124 kts 85°
2026-04-29 20:37 53.33430 -2.83325 523 ft 128 kts 86°
2026-04-29 20:37 53.33490 -2.81855 1111 ft 130 kts 86°
2026-04-29 20:38 53.33556 -2.80355 1677 ft 128 kts 90°
2026-04-29 20:38 53.33377 -2.78853 2089 ft 140 kts 110°
2026-04-29 20:38 53.32770 -2.77475 2563 ft 160 kts 136°
2026-04-29 20:38 53.31811 -2.76333 3018 ft 181 kts 140°
2026-04-29 20:39 53.30698 -2.75117 3550 ft 201 kts 141°
2026-04-29 20:39 53.29443 -2.73774 3985 ft 231 kts 142°
2026-04-29 20:39 53.28030 -2.72278 4017 ft 245 kts 143°
2026-04-29 20:39 53.26585 -2.70782 4003 ft 243 kts 144°
2026-04-29 20:40 53.25135 -2.69292 4005 ft 246 kts 143°
2026-04-29 20:40 53.23695 -2.67786 4002 ft 246 kts 142°
2026-04-29 20:40 53.22253 -2.66266 4001 ft 243 kts 143°
2026-04-29 20:40 53.20820 -2.64780 4004 ft 243 kts 143°
2026-04-29 20:41 53.19388 -2.63264 4011 ft 243 kts 143°
2026-04-29 20:41 53.17977 -2.61724 4015 ft 242 kts 140°
2026-04-29 20:41 53.16612 -2.60097 4001 ft 242 kts 140°
2026-04-29 20:41 53.15240 -2.58471 4018 ft 243 kts 140°
2026-04-29 20:42 53.13860 -2.56840 4027 ft 244 kts 140°
2026-04-29 20:42 53.12486 -2.55215 4339 ft 245 kts 140°
2026-04-29 20:42 53.11083 -2.53560 5202 ft 247 kts 140°
2026-04-29 20:42 53.09691 -2.51918 6248 ft 246 kts 141°
2026-04-29 20:43 53.08285 -2.50252 7149 ft 252 kts 141°
2026-04-29 20:43 53.06843 -2.48543 8160 ft 256 kts 141°
2026-04-29 20:43 53.05372 -2.46796 9089 ft 263 kts 141°
2026-04-29 20:43 53.03866 -2.45015 9981 ft 267 kts 142°
2026-04-29 20:44 53.02343 -2.43225 10828 ft 274 kts 142°
2026-04-29 20:44 53.00729 -2.41323 11221 ft 296 kts 142°
2026-04-29 20:44 52.98993 -2.39291 11511 ft 315 kts 142°
2026-04-29 20:44 52.97205 -2.37207 12212 ft 320 kts 142°
2026-04-29 20:45 52.95379 -2.35073 13077 ft 323 kts 142°
2026-04-29 20:45 52.93526 -2.32904 13837 ft 328 kts 142°
2026-04-29 20:45 52.91655 -2.30710 14637 ft 332 kts 142°
2026-04-29 20:45 52.89760 -2.28494 15373 ft 335 kts 142°
2026-04-29 20:46 52.87843 -2.26262 16112 ft 339 kts 142°
2026-04-29 20:46 52.85903 -2.24004 16791 ft 342 kts 143°
2026-04-29 20:46 52.83948 -2.21719 17480 ft 346 kts 143°
2026-04-29 20:46 52.81964 -2.19421 18126 ft 350 kts 143°
2026-04-29 20:47 52.79958 -2.17108 18729 ft 354 kts 143°
2026-04-29 20:47 52.77955 -2.14792 19307 ft 358 kts 143°
2026-04-29 20:47 52.75912 -2.12425 19952 ft 360 kts 143°
2026-04-29 20:47 52.74523 -2.10816 20350 ft 363 kts 143°
2026-04-29 20:48 52.71768 -2.07632 21137 ft 367 kts 143°
2026-04-29 20:48 52.69669 -2.05206 21700 ft 371 kts 143°
2026-04-29 20:48 52.67549 -2.02762 22307 ft 374 kts 144°
2026-04-29 20:48 52.65405 -2.00306 22926 ft 376 kts 144°
2026-04-29 20:49 52.63245 -1.97827 23237 ft 380 kts 143°
2026-04-29 20:49 52.61080 -1.95332 23324 ft 380 kts 144°
2026-04-29 20:49 52.58909 -1.92841 23325 ft 380 kts 143°
2026-04-29 20:49 52.56744 -1.90349 23322 ft 380 kts 144°
2026-04-29 20:50 52.54582 -1.87870 23322 ft 380 kts 144°
2026-04-29 20:50 52.52412 -1.85393 23321 ft 379 kts 144°
2026-04-29 20:50 52.50241 -1.82918 23321 ft 380 kts 144°
2026-04-29 20:50 52.48100 -1.80485 23322 ft 380 kts 144°
2026-04-29 20:51 52.45922 -1.78011 23320 ft 379 kts 144°
2026-04-29 20:51 52.43754 -1.75555 23320 ft 380 kts 144°
2026-04-29 20:51 52.41581 -1.73085 23322 ft 379 kts 144°
2026-04-29 20:51 52.39408 -1.70620 23321 ft 380 kts 143°
2026-04-29 20:52 52.37269 -1.68090 23320 ft 379 kts 141°
2026-04-29 20:52 52.35240 -1.65340 23321 ft 379 kts 137°
2026-04-29 20:52 52.33323 -1.62366 23319 ft 379 kts 134°
2026-04-29 20:52 52.31512 -1.59246 23313 ft 379 kts 133°
2026-04-29 20:53 52.29823 -1.56351 23312 ft 379 kts 133°
2026-04-29 20:53 52.27999 -1.53235 23313 ft 378 kts 133°
2026-04-29 20:53 52.26200 -1.50172 23302 ft 379 kts 133°
2026-04-29 20:53 52.24388 -1.47089 23107 ft 376 kts 133°
2026-04-29 20:54 52.20781 -1.40976 22109 ft 372 kts 133°
2026-04-29 20:54 52.18990 -1.37952 21555 ft 369 kts 133°
2026-04-29 20:54 52.17221 -1.34968 20971 ft 366 kts 133°
2026-04-29 20:55 52.15475 -1.32000 20355 ft 361 kts 133°
2026-04-29 20:55 52.13740 -1.29063 19726 ft 358 kts 133°
2026-04-29 20:55 52.12042 -1.26196 19030 ft 354 kts 133°
2026-04-29 20:55 52.10344 -1.23333 18183 ft 350 kts 133°
2026-04-29 20:56 52.08664 -1.20508 17353 ft 345 kts 133°
2026-04-29 20:56 52.07000 -1.17706 16592 ft 342 kts 133°
2026-04-29 20:56 52.05358 -1.14946 15835 ft 337 kts 133°
2026-04-29 20:56 52.03745 -1.12238 15431 ft 335 kts 133°
2026-04-29 20:57 52.02118 -1.09505 15290 ft 337 kts 132°
2026-04-29 20:57 52.00751 -1.06463 15274 ft 332 kts 116°
2026-04-29 20:57 52.00075 -1.03037 15277 ft 316 kts 99°
2026-04-29 20:57 52.00074 -0.99575 15284 ft 300 kts 85°
2026-04-29 20:58 52.00329 -0.96306 15283 ft 287 kts 85°
2026-04-29 20:58 52.00564 -0.93066 15285 ft 291 kts 86°
2026-04-29 20:58 52.00798 -0.89805 15291 ft 291 kts 86°
2026-04-29 20:59 52.00935 -0.87876 15293 ft 291 kts 86°
2026-04-29 20:59 52.01162 -0.84629 15293 ft 289 kts 86°
2026-04-29 20:59 52.01391 -0.81375 15293 ft 291 kts 86°
2026-04-29 20:59 52.01624 -0.78108 15294 ft 290 kts 86°
2026-04-29 21:00 52.01974 -0.74926 15292 ft 294 kts 75°
2026-04-29 21:00 52.02892 -0.71945 15295 ft 301 kts 58°
2026-04-29 21:00 52.04312 -0.69413 15288 ft 304 kts 50°
2026-04-29 21:00 52.05801 -0.66990 15151 ft 302 kts 50°
2026-04-29 21:01 52.07275 -0.64565 14830 ft 300 kts 50°
2026-04-29 21:01 52.08731 -0.62151 14411 ft 299 kts 50°
2026-04-29 21:01 52.10182 -0.59746 13977 ft 297 kts 50°
2026-04-29 21:01 52.11620 -0.57346 13538 ft 295 kts 50°
2026-04-29 21:02 52.13048 -0.54955 13217 ft 292 kts 50°
2026-04-29 21:02 52.14429 -0.52648 13058 ft 274 kts 51°
2026-04-29 21:02 52.15706 -0.50529 12860 ft 259 kts 51°
2026-04-29 21:02 52.16950 -0.48452 12433 ft 254 kts 51°
2026-04-29 21:03 52.18177 -0.46398 11917 ft 252 kts 51°
2026-04-29 21:03 52.19403 -0.44366 11381 ft 250 kts 51°
2026-04-29 21:03 52.20623 -0.42341 10885 ft 250 kts 49°
2026-04-29 21:03 52.22113 -0.40852 10363 ft 258 kts 21°
2026-04-29 21:04 52.23930 -0.40586 9902 ft 267 kts
2026-04-29 21:04 52.25762 -0.40657 9603 ft 265 kts
2026-04-29 21:04 52.27600 -0.40715 9305 ft 263 kts
2026-04-29 21:04 52.29421 -0.40769 8957 ft 261 kts
2026-04-29 21:05 52.31243 -0.40828 8624 ft 261 kts
2026-04-29 21:05 52.33039 -0.40878 8365 ft 256 kts
2026-04-29 21:05 52.34772 -0.40471 8303 ft 247 kts 30°
2026-04-29 21:05 52.36076 -0.38828 8313 ft 234 kts 61°
2026-04-29 21:06 52.36602 -0.36405 8310 ft 226 kts 92°
2026-04-29 21:06 52.36444 -0.33896 8313 ft 225 kts 102°
2026-04-29 21:06 52.36044 -0.31416 8311 ft 222 kts 112°
2026-04-29 21:06 52.35328 -0.29271 8309 ft 214 kts 125°
2026-04-29 21:07 52.34341 -0.27421 8313 ft 217 kts 128°
2026-04-29 21:07 52.33422 -0.25458 8310 ft 216 kts 124°
2026-04-29 21:07 52.32842 -0.24130 8313 ft 217 kts 124°
2026-04-29 21:07 52.31673 -0.21439 8311 ft 217 kts 124°
2026-04-29 21:08 52.30854 -0.19572 8333 ft 217 kts 123°
2026-04-29 21:08 52.29804 -0.17802 8323 ft 220 kts 147°
2026-04-29 21:08 52.28295 -0.17196 8315 ft 234 kts 177°
2026-04-29 21:08 52.26680 -0.17458 8307 ft 227 kts 181°
2026-04-29 21:09 52.25156 -0.17773 8311 ft 218 kts 181°
2026-04-29 21:09 52.23632 -0.18090 8309 ft 222 kts 181°
2026-04-29 21:09 52.22129 -0.18412 8310 ft 222 kts 181°
2026-04-29 21:09 52.20605 -0.18769 8317 ft 223 kts 187°
2026-04-29 21:10 52.19219 -0.20008 8313 ft 239 kts 221°
2026-04-29 21:10 52.18215 -0.22180 8300 ft 236 kts 231°
2026-04-29 21:10 52.17324 -0.24358 8310 ft 230 kts 231°
2026-04-29 21:10 52.16424 -0.26554 8311 ft 234 kts 231°
2026-04-29 21:11 52.15527 -0.28742 8305 ft 232 kts 231°
2026-04-29 21:11 52.14635 -0.30934 8302 ft 232 kts 231°
2026-04-29 21:11 52.14045 -0.32385 8303 ft 231 kts 231°
2026-04-29 21:11 52.13156 -0.34572 8304 ft 232 kts 231°
2026-04-29 21:12 52.12262 -0.36761 8304 ft 232 kts 231°
2026-04-29 21:12 52.11371 -0.38950 8304 ft 233 kts 231°
2026-04-29 21:12 52.10188 -0.41859 8291 ft 232 kts 231°
2026-04-29 21:12 52.09299 -0.44052 8281 ft 232 kts 231°
2026-04-29 21:13 52.08429 -0.46236 7989 ft 230 kts 231°
2026-04-29 21:13 52.07843 -0.47718 7699 ft 230 kts 231°
2026-04-29 21:13 52.06978 -0.49900 7289 ft 230 kts 231°
2026-04-29 21:13 52.06122 -0.52051 6920 ft 229 kts 230°
2026-04-29 21:14 52.05112 -0.53980 6517 ft 222 kts 217°
2026-04-29 21:14 52.04000 -0.55708 6226 ft 219 kts 216°
2026-04-29 21:14 52.02918 -0.57386 6084 ft 210 kts 216°
2026-04-29 21:14 52.01902 -0.59001 5851 ft 203 kts 216°
2026-04-29 21:15 52.00886 -0.60620 5455 ft 206 kts 216°
2026-04-29 21:15 51.99944 -0.62198 5713 ft 196 kts 216°
2026-04-29 21:15 51.98936 -0.63823 5954 ft 210 kts 216°
2026-04-29 21:15 51.97896 -0.65486 5982 ft 204 kts 216°
2026-04-29 21:16 51.96929 -0.67048 5981 ft 188 kts 216°
2026-04-29 21:16 51.96007 -0.68567 5992 ft 192 kts 215°
2026-04-29 21:16 51.95081 -0.70100 5988 ft 190 kts 216°
2026-04-29 21:16 51.94146 -0.71601 5982 ft 184 kts 206°
2026-04-29 21:17 51.93047 -0.72307 5934 ft 161 kts 174°
2026-04-29 21:17 51.91934 -0.72396 5637 ft 160 kts 170°
2026-04-29 21:17 51.90833 -0.72448 5286 ft 160 kts 171°
2026-04-29 21:17 51.89715 -0.72519 4890 ft 161 kts 171°
2026-04-29 21:18 51.88580 -0.72603 4477 ft 163 kts 171°
2026-04-29 21:18 51.87459 -0.72704 4143 ft 161 kts 171°
2026-04-29 21:18 51.86486 -0.72341 3952 ft 132 kts 130°
2026-04-29 21:18 51.86016 -0.71136 3697 ft 126 kts 111°
2026-04-29 21:19 51.85662 -0.69834 3348 ft 128 kts 110°
2026-04-29 21:19 51.85310 -0.68527 3065 ft 126 kts 110°
2026-04-29 21:19 51.85049 -0.67220 2973 ft 123 kts 90°
2026-04-29 21:19 51.85095 -0.65802 2982 ft 127 kts 93°
2026-04-29 21:20 51.85047 -0.64394 2979 ft 125 kts 96°
2026-04-29 21:20 51.84969 -0.62993 2980 ft 126 kts 96°
2026-04-29 21:20 51.84911 -0.61577 2976 ft 126 kts 94°
2026-04-29 21:20 51.84871 -0.60154 2986 ft 127 kts 93°
2026-04-29 21:21 51.84839 -0.58741 2984 ft 126 kts 93°
2026-04-29 21:21 51.84809 -0.57346 2980 ft 125 kts 93°
2026-04-29 21:21 51.84776 -0.55932 2976 ft 126 kts 93°
2026-04-29 21:21 51.84748 -0.54518 2954 ft 124 kts 93°
2026-04-29 21:22 51.84794 -0.53136 2813 ft 120 kts 86°
2026-04-29 21:22 51.84916 -0.51881 2525 ft 111 kts 83°
2026-04-29 21:22 51.85068 -0.50673 2213 ft 107 kts 77°
2026-04-29 21:22 51.85270 -0.49526 1929 ft 106 kts 74°
2026-04-29 21:23 51.85470 -0.48393 1679 ft 104 kts 75°
2026-04-29 21:23 51.85656 -0.47245 1531 ft 111 kts 75°
2026-04-29 21:23 51.85871 -0.46052 1435 ft 110 kts 73°
2026-04-29 21:23 51.86081 -0.44864 1356 ft 109 kts 73°
2026-04-29 21:24 51.86289 -0.43689 1249 ft 111 kts 75°
2026-04-29 21:24 51.86481 -0.42489 1078 ft 109 kts 76°
2026-04-29 21:24 51.86689 -0.41295 924 ft 111 kts 75°
2026-04-29 21:24 51.86899 -0.40096 796 ft 111 kts 73°
2026-04-29 21:25 51.87109 -0.38900 634 ft 111 kts 73°
2026-04-29 21:25 51.87322 -0.37694 537 ft 105 kts 73°
2026-04-29 21:25 51.87475 -0.36806 540 ft 70 kts 73°
2026-04-29 21:25 51.87588 -0.36127 526 ft 53 kts 73°
2026-04-29 21:26 51.87657 -0.35912 522 ft 9 kts 10°
2026-04-29 21:26 51.87706 -0.35926 527 ft 6 kts 346°
2026-04-29 21:26 51.87747 -0.35950 530 ft 6 kts 330°
2026-04-29 21:26 51.87776 -0.36006 531 ft 9 kts 293°
2026-04-29 21:27 51.87779 -0.36108 532 ft 11 kts 261°
2026-04-29 21:27 51.87756 -0.36246 532 ft 14 kts 254°
2026-04-29 21:27 51.87725 -0.36421 532 ft 18 kts 254°
2026-04-29 21:27 51.87689 -0.36627 533 ft 20 kts 253°
2026-04-29 21:28 51.87650 -0.36856 534 ft 22 kts 255°
2026-04-29 21:28 51.87607 -0.37104 534 ft 16 kts 254°
2026-04-29 21:28 51.87581 -0.37267 534 ft 17 kts 260°
2026-04-29 21:28 51.87618 -0.37440 536 ft 17 kts 320°
2026-04-29 21:29 51.87711 -0.37597 534 ft 21 kts 298°
2026-04-29 21:29 51.87776 -0.37820 534 ft 22 kts 295°
2026-04-29 21:29 51.87854 -0.37993 534 ft 15 kts 331°
2026-04-29 21:29 51.87913 -0.38017 534 ft 7 kts
2026-04-29 21:30 51.87927 -0.37987 534 ft 4 kts 68°
2026-04-29 21:30 51.87927 -0.37939 534 ft 3 kts 98°
2026-04-29 21:30 51.87925 -0.37920 534 ft 0 kts 98°